Regional Weather Roundup
Issued by NWS

Home | Current Version | Previous Version | Graphics & Text | Print | Product List | Glossary On
Versions: 1 2 3 4 5 6 7 8 9 10 11 12 13 14 15 16 17 18 19 20 21 22 23 24 25 26 27 28 29 30 31 32 33 34 35 36 37 38 39 40 41 42 43 44 45 46 47 48 49 50
341
ASUS43 KMKX 120110
RWRWI

WISCONSIN REGIONAL WEATHER ROUNDUP
NATIONAL WEATHER SERVICE MILWAUKEE/SULLIVAN WI
700 PM CST THU FEB 11 2016

NOTE: "FAIR" INDICATES FEW OR NO CLOUDS BELOW 12,000 FEET WITH NO
SIGNIFICANT WEATHER AND/OR OBSTRUCTIONS TO VISIBILITY.

WIZ001-002-006>008-014>016-023>028-120200-
NORTHWEST WISCONSIN

CITY           SKY/WX    TMP DP  RH WIND       PRES   REMARKS
SUPERIOR ARPT  CLOUDY    15  -1  49 W12       30.20S WCI   1
ASHLAND        CLOUDY    13  -3  49 SW9       30.17S WCI   1
HAYWARD        CLOUDY    12  -5  46 W6        30.17S WCI   3
SIREN          CLOUDY    14  -1  52 W7        30.22S WCI   4
CUMBERLAND     CLOUDY    12   1  62 SW8       30.19S WCI   1
RICE LAKE      CLOUDY    13   1  56 SW3       30.22S
CHETEK         CLOUDY    13  -1  54 W3        30.22R
LADYSMITH      CLOUDY    13  -3  49 SW6       30.20R WCI   4
EAU CLAIRE     CLOUDY    15  -1  49 SW8       30.23R WCI   4
MENOMONIE      CLOUDY    16   0  49 SW8       30.24R WCI   6
NEW RICHMOND   CLOUDY    14   3  60 SW6       30.23S WCI   5
OSCEOLA        CLOUDY    16   2  54 W7        30.27R WCI   6
$$

WIZ003>005-009-010-017-018-120200-
NORTH CENTRAL WISCONSIN

CITY           SKY/WX    TMP DP  RH WIND       PRES   REMARKS
MANITOWISH WTR CLOUDY    11  -4  51 W8        30.08S WCI  -1
ARBOR VITAE    CLOUDY    14  -1  51 W8        30.08S WCI   3
WOODRUFF       CLOUDY    14  -1  51 W8        30.08S WCI   3
RHINELANDER    CLOUDY    12  -4  48 W12       30.09S WCI  -2
EAGLE RIVER    CLOUDY    12  -6  45 CALM      30.07S
LAND O LAKES   CLOUDY    11  -3  52 W5        30.07S WCI   3
PHILLIPS       CLOUDY    11  -5  49 SW8       30.13R WCI  -1
TOMAHAWK       CLOUDY    13  -5  44 W7        30.13S WCI   2
MEDFORD        CLOUDY    11  -4  50 W7        30.15S WCI   0
MERRILL        CLOUDY    12  -5  46 W12       30.16S WCI  -2
$$

WIZ029-030-035-036-043>047-120200-
CENTRAL WISCONSIN

CITY           SKY/WX    TMP DP  RH WIND       PRES   REMARKS
WAUSAU         CLOUDY    14  -1  51 NW3       30.16R
MOSINEE        CLOUDY    12   1  62 W7        30.17F WCI   2
MARSHFIELD     CLOUDY    14  -4  44 W10       30.17R WCI   1
STEVENS POINT  CLOUDY    12  -4  48 SW3       30.19S
WAUPACA        CLOUDY    15  -1  49 CALM      30.21S
WAUTOMA        CLOUDY    14  -4  44 SW6       30.23R WCI   5
WISC RAPIDS    CLOUDY    16  -5  39 W7        30.21S WCI   6
CAMP DOUGLAS   CLOUDY    16   0  48 SW6       30.22S WCI   7
$$

WIZ011>013-019>022-031-037>040-048>050-120200-
NORTHEAST WISCONSIN

CITY           SKY/WX    TMP DP  RH WIND       PRES   REMARKS
ANTIGO         CLOUDY     9  -4  54 SW12      30.12S WCI  -5
SHAWANO        CLOUDY    17  -5  38 W7        30.20R WCI   7
OCONTO         MOCLDY    13  -1  53 SW7       30.19R WCI   2
STURGEON BAY   PTCLDY    12  -2  52 SW12      30.19S WCI  -2
GREEN BAY      CLOUDY    13  -2  51 SW7       30.21R WCI   3
MANITOWOC      CLEAR     10   1  67 SW6       30.23R WCI   0
APPLETON       MOCLDY    12  -6  44 SW6       30.19R WCI   3
CLINTONVILLE   CLOUDY    16  -4  41 W6        30.20R WCI   7
OSHKOSH        CLOUDY    11  -2  56 SW6       30.22R WCI   1
$$

WIZ032>034-041-042-053>061-120200-
SOUTHWEST WISCONSIN

CITY           SKY/WX    TMP DP  RH WIND       PRES   REMARKS
LA CROSSE      CLOUDY    16   1  51 SW7       30.27R WCI   6
SPARTA         CLOUDY    16  -1  47 W8        30.26R WCI   6
VIROQUA        CLOUDY    13   1  58 SW9       30.22S WCI   1
BOSCOBEL       CLOUDY    14   0  53 SW6       30.30R WCI   5
PRAIRIE DU CHI PTCLDY    14   1  55 W3        30.30R
PLATTEVILLE    PTCLDY    14   2  59 W6        30.26S WCI   5
$$

WIZ056-057-062-063-064-067-068-120200-
SOUTH CENTRAL WISCONSIN

CITY           SKY/WX    TMP DP  RH WIND       PRES   REMARKS
REEDSBURG      CLOUDY    16   0  51 SW3       30.24S
BARABOO/DELLS  CLOUDY    15  -3  44 SW6       30.23S WCI   6
LONE ROCK      CLOUDY    15   0  51 W3        30.28R
MINERAL POINT  CLOUDY    14   0  52 W5        30.24S WCI   6
MADISON        MOCLDY    15  -1  49 VRB7      30.25R WCI   5
MIDDLETON      MOCLDY    15   0  50 W5        30.25S WCI   7
WATERTOWN      CLEAR     12   1  62 SW3       30.24S
MONROE         CLOUDY    14   1  57 W6        30.24S WCI   5
JANESVILLE     CLEAR     18   5  57 SW6       30.25S WCI   9
$$

WIZ051-052-058>065-066-070>072-120200-
SOUTHEAST WISCONSIN

CITY           SKY/WX    TMP DP  RH WIND       PRES   REMARKS
MILWAUKEE      PTCLDY    16  -1  47 W6        30.26S WCI   7
WAUKESHA       CLEAR     10  -2  56 SW6       30.25S WCI   1
MILWAUKEE/TIMM CLEAR     14  -2  48 SW6       30.26S WCI   5
RACINE         CLEAR     15   0  51 SW3       30.27S
BURLINGTON     CLOUDY    10   1  69 CALM      30.26S
KENOSHA        CLEAR     14   2  58 SW7       30.26S WCI   4
FOND DU LAC    MOCLDY    11  -1  58 SW6       30.23R WCI   1
SHEBOYGAN      CLEAR     10  -2  58 SW6       30.23S WCI   0
WEST BEND      CLEAR     12   0  57 CALM      30.23S
JUNEAU         CLEAR     10  -2  59 SW6       30.24S WCI   0
$$

LSZ147-162-120200-
LAKE SUPERIOR

STATION/POSITION TIME  TEMP    WIND        PRES    WAVE
                       AIR SEA DIR/SP/G            HT/PER
                 (UTC) (F)     (DEG/KT/KT) (MB)    (FT/S)
DEVILS ISLAND    0000   18     270/ 22/ 25 1021.9R
PORT WING        0000   15     230/  6/ 12 1022.0R
SAXON HARBOR     0000   15                 1021.0
$$

LMZ867-665-643>646-120200-
LAKE MICHIGAN

STATION/POSITION TIME  TEMP    WIND        PRES    WAVE
                       AIR SEA DIR/SP/G            HT/PER
                 (UTC) (F)     (DEG/KT/KT) (MB)    (FT/S)
CHAMBERS ISLAND  0000   16     190/  6/ 11 1021.3
ALGOMA LAKESHORE 2311          270/  4/  7   N/A
KEWAUNEE LAKESHO 0000   14     240/  5/  7 1021.9F
SHEBOYGAN LAKESH 0100   15     240/  7/  8 1025.7R
PORT WASHINGTON  0000   16     260/  5/  6 1025.1F
MILWAUKEE LAKESH 0010   19     260/  8/ 10   N/A
KENOSHA   LAKESH 0000   18     250/  5/  7 1024.7F
$$

TC  - TEMPERATURE IN CELSIUS
VSB - VISIBILITY IN STATUTE MILES
WCI - WIND CHILL INDEX
HX  - HEAT INDEX





USA.gov is the U.S. government's official web portal to all federal, state and local government web resources and services.